15min,AgWx,beryljct,423,12OCT2020:00:00:00,44.3,12.85,46.5,44.6,44.8,46.7,43.7,50,52,46,0.504,27.1,27.5,26.8,6.708,5.0,318,10,6.7,0.00014,0.00021,56.2,59.5,10,0,.,.,4.26,0.00,0.00
15min,AgWx,beryljct,423,12OCT2020:00:15:00,44.4,12.82,40.8,42.0,45.6,47.3,42.0,48,59,45,0.536,27.1,28.8,26.5,4.187,3.6,341,59,7.0,0.00007,0.00013,56.0,59.5,9,0,.,.,4.26,0.00,0.00
15min,AgWx,beryljct,423,12OCT2020:00:30:00,43.8,12.82,39.5,39.5,41.7,45.6,38.5,59,66,50,0.526,28.4,29.0,27.5,1.776,2.3,142,56,4.3,-0.00006,-0.00006,55.7,59.4,9,0,.,.,4.26,0.00,0.00
15min,AgWx,beryljct,423,12OCT2020:00:45:00,42.7,12.81,35.6,35.7,38.8,41.0,35.7,63,73,57,0.518,27.4,28.3,26.6,4.099,3.2,167,30,4.3,-0.00003,-0.00001,55.5,59.3,9,0,.,.,4.26,0.00,0.00
15min,AgWx,beryljct,423,12OCT2020:01:00:00,41.3,12.8,35.6,35.0,35.7,36.9,34.9,71,75,68,0.492,27.0,28.4,25.8,1.008,1.8,172,8.5,4.6,-0.00012,-0.00014,55.3,59.3,9,0,.,.,4.26,0.00,0.00
15min,AgWx,beryljct,423,12OCT2020:01:15:00,39.9,12.8,36.1,35.8,35.2,35.9,34.7,68,72,66,0.484,25.9,26.7,25.1,1.841,1.1,177,0.6,2.0,-0.00017,-0.00023,55.1,59.2,10,0,.,.,4.27,0.01,0.00
15min,AgWx,beryljct,423,12OCT2020:01:30:00,38.9,12.79,34.5,35.0,35.4,36.7,34.3,68,72,64,0.472,25.9,26.5,25.5,0.921,2.1,196,8.4,2.6,-0.00009,-0.00011,54.8,59.1,10,0,.,.,4.26,0.00,0.00
15min,AgWx,beryljct,423,12OCT2020:01:45:00,38.1,12.78,34.3,34.7,34.5,35.2,33.4,69,74,62,0.423,25.3,26.3,23.1,3.332,2.8,199,5.4,3.4,-0.00006,-0.00006,54.6,59.0,9,0,.,.,4.26,0.00,0.00
15min,AgWx,beryljct,423,12OCT2020:02:00:00,37.5,12.79,31.6,31.5,34.5,36.4,31.5,65,77,61,0.464,24.0,25.3,22.8,2.85,2.8,180,25,4.1,-0.00004,-0.00004,54.4,59.0,9,0,.,.,4.26,0.00,0.00
15min,AgWx,beryljct,423,12OCT2020:02:15:00,36.7,12.77,33.1,32.8,31.7,32.9,30.9,75,80,64,0.401,24.5,25.5,21.8,2.017,2.1,159,9.1,3.6,-0.00010,-0.00012,54.2,58.9,10,0,.,.,4.26,0.00,0.00
15min,AgWx,beryljct,423,12OCT2020:02:30:00,35.8,12.76,30.2,30.4,31.5,32.9,30.3,66,69,62,0.392,21.5,22.6,20.9,0,1.1,169,3.0,2.1,-0.00015,-0.00020,53.9,58.8,10,0,.,.,4.27,0.00,0.00
15min,AgWx,beryljct,423,12OCT2020:02:45:00,35.1,12.75,29.9,29.7,30.6,31.4,29.7,70,77,66,0.430,22.1,23.5,21.3,1.688,0.3,231,33,1.8,-0.00022,-0.00034,53.7,58.7,10,0,.,.,4.27,0.00,0.00
15min,AgWx,beryljct,423,12OCT2020:03:00:00,34.3,12.74,30.1,29.9,29.3,29.9,28.8,78,81,70,0.394,23.1,24.3,21.4,3.727,3.3,311,7.5,4.7,-0.00006,-0.00006,53.5,58.6,10,0,.,.,4.27,0.00,0.00
15min,AgWx,beryljct,423,12OCT2020:03:15:00,33.8,12.75,31.1,30.5,29.9,30.5,29.5,69,71,66,0.385,21.0,21.4,20.4,2.389,3.7,335,13,4.8,-0.00002,-0.00001,53.3,58.5,9,0,.,.,4.26,0.00,0.00
15min,AgWx,beryljct,423,12OCT2020:03:30:00,33.3,12.74,28.9,28.7,29.5,30.8,28.4,69,74,65,0.372,20.5,21.3,19.9,1.447,1.8,337,12,3.4,-0.00010,-0.00012,53.0,58.4,9,0,.,.,4.26,0.00,0.00
15min,AgWx,beryljct,423,12OCT2020:03:45:00,32.7,12.71,29.3,28.8,28.8,29.2,28.6,67,70,64,0.352,19.3,20.3,18.3,0,1.1,327,17,4.0,-0.00014,-0.00018,52.8,58.3,10,0,.,.,4.27,0.00,0.00
15min,AgWx,beryljct,423,12OCT2020:04:00:00,32.2,12.72,28.6,28.2,28.7,29.5,28.2,68,71,65,0.373,19.5,20.2,18.7,1.863,1.9,319,17,3.4,-0.00009,-0.00011,52.6,58.2,10,0,.,.,4.27,0.00,0.00
15min,AgWx,beryljct,423,12OCT2020:04:15:00,31.7,12.71,28.5,28.0,28.4,29.0,27.9,68,71,64,0.352,19.1,20.1,18.0,1.206,1.6,12,37,2.6,-0.00010,-0.00013,52.4,58.1,10,0,.,.,4.27,0.00,0.00
15min,AgWx,beryljct,423,12OCT2020:04:30:00,31.3,12.67,26.9,27.2,28.2,28.7,27.2,72,75,67,0.370,20.2,21.2,18.7,3.201,1.7,113,55,3.2,-0.00011,-0.00014,52.1,58.1,10,0,.,.,4.27,0.00,0.00
15min,AgWx,beryljct,423,12OCT2020:04:45:00,30.8,12.67,28.2,27.7,26.8,27.7,26.2,77,79,74,0.383,20.5,20.9,19.8,1.951,2.7,195,16,3.5,-0.00007,-0.00008,51.9,57.9,9,0,.,.,4.27,0.00,0.00
15min,AgWx,beryljct,423,12OCT2020:05:00:00,30.3,12.66,28.7,28.0,28.2,28.8,27.7,73,76,69,0.379,20.6,21.5,19.2,2.653,2.5,172,15,3.6,-0.00007,-0.00008,51.7,57.8,9,0,.,.,4.27,0.00,0.00
15min,AgWx,beryljct,423,12OCT2020:05:15:00,30.1,12.65,30.4,30.1,28.5,30.1,27.2,73,76,71,0.411,21.0,22.4,20.3,3.047,3.3,197,9.3,3.9,-0.00004,-0.00004,51.5,57.7,9,0,.,.,4.27,0.00,0.00
15min,AgWx,beryljct,423,12OCT2020:05:30:00,30.1,12.65,29.1,29.1,29.3,30.1,28.5,74,77,71,0.419,22.1,22.9,21.4,1.337,1.1,179,8.6,3.6,-0.00015,-0.00020,51.3,57.6,9,0,.,.,4.27,0.00,0.00
15min,AgWx,beryljct,423,12OCT2020:05:45:00,29.9,12.63,29.9,29.3,28.7,29.4,27.9,78,81,74,0.408,22.5,23.4,21.3,2.784,1.2,161,14,2.8,-0.00015,-0.00020,51.1,57.5,9,0,.,.,4.27,0.00,0.00
15min,AgWx,beryljct,423,12OCT2020:06:00:00,29.8,12.64,25.9,26.1,28.6,29.9,26.1,73,76,71,0.347,21.2,22.7,18.4,3.091,2.4,168,9.2,3.2,0.00010,0.00017,50.9,57.4,9,0,.,.,4.27,0.00,0.00
15min,AgWx,beryljct,423,12OCT2020:06:15:00,29.4,12.62,28.4,27.7,26.6,28.2,25.4,72,76,69,0.366,18.9,20.6,17.3,2.411,2.2,191,17,4.1,0.00009,0.00016,50.7,57.3,9,0,.,.,4.27,0.00,0.00
15min,AgWx,beryljct,423,12OCT2020:06:30:00,29.0,12.6,29.6,28.6,27.6,28.6,26.9,75,77,72,0.408,20.5,22.2,19.7,0.767,1.5,196,2.9,3.5,0.00007,0.00011,50.5,57.2,9,1,.,.,4.27,0.00,0.00
15min,AgWx,beryljct,423,12OCT2020:06:45:00,28.8,12.6,28.3,28.4,29.0,29.9,27.9,73,77,70,0.382,21.5,22.5,20.6,2.587,1.6,165,22,3.0,0.00009,0.00014,50.3,57.1,10,4,.,.,4.27,0.00,0.00
15min,AgWx,beryljct,423,12OCT2020:07:00:00,28.8,12.68,29.3,28.7,28.2,28.7,27.6,70,72,69,0.373,19.7,20.5,19.1,2.433,2.8,177,5.4,3.5,0.00022,0.00032,50.1,57.0,9,28,.,.,4.27,0.00,0.00
15min,AgWx,beryljct,423,12OCT2020:07:15:00,29.4,12.85,29.4,28.8,28.0,28.8,27.1,71,74,68,0.372,19.7,20.8,18.8,0,1.4,174,4.2,2.5,0.00030,0.00037,49.9,56.9,9,71,.,.,4.27,0.00,0.00
15min,AgWx,beryljct,423,12OCT2020:07:30:00,30.6,13.11,32.6,31.3,29.4,31.3,28.4,72,80,68,0.473,21.6,25.8,19.5,3.179,0.4,214,41,3.5,0.00040,0.00043,49.7,56.8,9,111,.,.,4.27,0.00,0.00
15min,AgWx,beryljct,423,12OCT2020:07:45:00,32.8,13.57,32.8,32.5,32.7,33.5,31.4,69,79,64,0.454,23.6,25.6,22.6,1.118,1.7,334,24,3.7,0.00060,0.00071,49.5,56.7,9,154,.,.,4.27,0.00,0.00
15min,AgWx,beryljct,423,12OCT2020:08:00:00,35.6,14.68,38.8,38.1,35.4,38.1,32.5,68,75,60,0.469,25.9,27.4,24.6,2.061,1.5,354,16,2.4,0.00080,0.00091,49.4,56.6,9,200,.,.,4.26,0.00,0.00
15min,AgWx,beryljct,423,12OCT2020:08:15:00,39.1,14.64,41.2,40.7,39.6,40.7,38.2,57,61,55,0.474,25.7,26.2,25.3,1.491,1.6,342,11,2.2,0.00108,0.00125,49.3,56.5,9,247,.,.,4.26,0.00,0.00
15min,AgWx,beryljct,423,12OCT2020:08:30:00,42.7,14.59,43.3,43.2,41.9,43.2,40.7,56,58,55,0.523,27.5,29.1,25.9,0,0.9,28,4.7,1.9,0.00131,0.00146,49.2,56.4,9,295,.,.,4.26,0.00,0.00
15min,AgWx,beryljct,423,12OCT2020:08:45:00,46.4,14.52,45.4,45.0,44.7,46.0,43.2,53,56,50,0.513,28.6,29.5,27.7,0,0.0,33,0.5,0.8,0.00156,0.00167,49.1,56.3,9,344,.,.,4.26,0.00,0.00
15min,AgWx,beryljct,423,12OCT2020:09:00:00,49.9,14.42,47.5,47.2,46.0,47.2,45.0,49,52,47,0.573,28.0,30.6,26.5,0,0.3,29,11,1.3,0.00183,0.00197,49.1,56.2,9,390,.,.,4.26,0.00,0.00
15min,AgWx,beryljct,423,12OCT2020:09:15:00,52.9,14.43,48.3,48.6,48.0,48.8,47.2,52,55,49,0.583,31.1,32.7,29.7,3.157,1.8,108,16,3.5,0.00218,0.00245,49.1,56.1,9,439,.,.,4.25,0.00,0.00
15min,AgWx,beryljct,423,12OCT2020:09:30:00,55.0,14.37,50.2,50.0,49.6,50.9,48.4,51,55,45,0.549,32.3,34.2,29.4,1.162,1.8,120,15,3.6,0.00244,0.00275,49.2,56.0,9,482,.,.,4.25,0.00,0.00
15min,AgWx,beryljct,423,12OCT2020:09:45:00,57.1,14.36,51.4,51.9,51.2,52.0,50.0,46,51,42,0.570,31.1,33.6,29.2,1.206,0.9,74,24,2.3,0.00269,0.00295,49.3,55.9,9,522,.,.,4.25,0.00,0.00
15min,AgWx,beryljct,423,12OCT2020:10:00:00,59.6,14.31,54.7,54.2,53.4,54.4,51.8,44,47,41,0.609,31.9,34.2,30.0,0.745,0.9,58,47,2.3,0.00296,0.00325,49.5,55.8,9,558,.,.,4.24,0.00,0.00
15min,AgWx,beryljct,423,12OCT2020:10:15:00,61.8,13.95,55.9,56.1,55.5,56.6,54.2,42,47,39,0.610,33.0,35.1,31.0,2.28,1.8,99,26,3.7,0.00328,0.00369,49.8,55.7,9,594,.,.,4.24,0.00,0.00
15min,AgWx,beryljct,423,12OCT2020:10:30:00,63.2,13.85,57.2,57.6,57.0,58.5,55.9,41,44,37,0.628,33.4,35.5,31.1,0.855,1.8,123,36,4.0,0.00352,0.00395,50.1,55.6,9,626,.,.,4.24,0.00,0.00
15min,AgWx,beryljct,423,12OCT2020:10:45:00,64.9,13.8,60.4,59.8,59.0,61.0,57.5,36,40,34,0.707,32.3,35.7,30.8,3.639,0.8,77,38,3.6,0.00370,0.00403,50.5,55.5,9,653,.,.,4.23,0.00,0.00
15min,AgWx,beryljct,423,12OCT2020:11:00:00,66.5,13.76,61.7,61.1,60.0,61.1,59.2,39,45,37,0.779,35.1,38.5,33.1,2.477,2.5,119,23,5.0,0.00399,0.00454,51.0,55.4,9,679,.,.,4.23,0.00,0.00
15min,AgWx,beryljct,423,12OCT2020:11:15:00,67.8,13.8,63.3,62.7,61.7,62.7,60.9,38,43,35,0.706,35.8,39.2,33.5,0.373,1.8,103,24,4.0,0.00410,0.00459,51.5,55.4,9,692,.,.,4.23,0.00,0.00
15min,AgWx,beryljct,423,12OCT2020:11:30:00,69.4,13.72,64.9,64.3,63.5,64.4,62.7,37,41,32,0.772,36.6,40.3,33.1,3.617,2.2,116,18,4.3,0.00435,0.00492,52.1,55.3,9,719,.,.,4.22,0.00,0.00
15min,AgWx,beryljct,423,12OCT2020:11:45:00,70.7,13.74,65.4,65.7,65.1,65.7,64.3,34,40,30,0.673,36.0,39.9,32.7,3.595,3.0,131,14,4.4,0.00457,0.00527,52.7,55.3,9,733,.,.,4.22,0.00,0.00
15min,AgWx,beryljct,423,12OCT2020:12:00:00,71.6,13.68,67.2,67.2,66.7,68.2,65.7,30,35,25,0.598,34.0,38.4,30.6,1.688,3.1,120,18,4.9,0.00475,0.00552,53.4,55.3,9,743,.,.,4.22,0.00,0.00
15min,AgWx,beryljct,423,12OCT2020:12:15:00,72.3,13.66,67.8,68.3,67.6,68.4,67.2,31,38,28,0.721,36.1,41.4,33.1,5.765,4.8,109,14,7.5,0.00494,0.00591,54.0,55.3,9,745,.,.,4.22,0.00,0.00
15min,AgWx,beryljct,423,12OCT2020:12:30:00,72.9,13.68,69.8,69.5,69.0,70.0,68.2,29,35,24,0.580,35.3,41.4,30.7,2.105,3.5,96,26,6.1,0.00492,0.00577,54.7,55.3,9,746,.,.,4.22,0.00,0.00
15min,AgWx,beryljct,423,12OCT2020:12:45:00,74.1,13.7,70.3,70.5,70.1,70.5,69.5,26,31,21,0.604,33.2,38.1,28.3,5.546,4.4,91,23,7.8,0.00504,0.00604,55.5,55.3,9,739,.,.,4.22,0.00,0.00
15min,AgWx,beryljct,423,12OCT2020:13:00:00,74.9,13.57,71.1,71.1,70.7,71.2,70.3,26,31,21,0.660,34.0,38.7,28.8,3.814,4.8,113,13,7.9,0.00508,0.00616,56.2,55.3,9,732,.,.,4.22,0.00,0.00
15min,AgWx,beryljct,423,12OCT2020:13:15:00,75.9,13.53,72.1,72.9,72.0,73.4,71.1,24,31,20,0.604,33.3,39.3,27.9,6.379,3.8,112,32,7.7,0.00495,0.00590,56.9,55.3,9,722,.,.,4.22,0.00,0.00
15min,AgWx,beryljct,423,12OCT2020:13:30:00,77.0,13.52,75.8,73.8,72.8,73.8,72.0,20,30,16,0.535,29.4,39.3,24.7,0.636,3.6,209,61,7.7,0.00493,0.00589,57.6,55.4,9,712,.,.,4.22,0.00,0.00
15min,AgWx,beryljct,423,12OCT2020:13:45:00,78.1,13.52,75.6,75.6,74.9,75.7,73.7,15,21,10,0.378,23.8,31.7,15.8,9.78,7.1,271,16,14.8,0.00546,0.00706,58.3,55.5,9,697,.,.,4.22,0.00,0.00
15min,AgWx,beryljct,423,12OCT2020:14:00:00,78.6,13.52,75.6,75.7,75.5,76.0,75.1,12,16,9.5,0.342,18.4,26.0,13.9,17.21,12.7,278,18,18.2,0.00622,0.00874,59.0,55.6,9,676,.,.,4.22,0.00,0.00
15min,AgWx,beryljct,423,12OCT2020:14:15:00,78.7,13.52,75.6,75.8,75.6,75.9,75.2,12,14,10,0.369,18.9,23.4,15.7,11.64,12.3,291,17,17.8,0.00595,0.00842,59.5,55.7,9,636,.,.,4.22,0.00,0.00
15min,AgWx,beryljct,423,12OCT2020:14:30:00,79.0,13.5,75.6,76.3,75.9,76.5,75.6,12,15,9.5,0.324,19.0,24.4,14.1,9.36,9.8,286,20,15.7,0.00543,0.00754,60.0,55.8,9,608,.,.,4.22,0.01,0.00
15min,AgWx,beryljct,423,12OCT2020:14:45:00,79.2,13.48,75.5,75.6,76.0,76.3,75.5,12,14,9.6,0.335,19.9,24.2,14.2,16.49,11.0,271,11,16.5,0.00549,0.00774,60.5,55.9,9,591,.,.,4.22,0.00,0.00
15min,AgWx,beryljct,423,12OCT2020:15:00:00,79.0,13.48,75.4,75.6,75.7,76.1,75.4,11,14,9.9,0.357,18.4,23.4,15.0,8.15,12.7,273,12,18.8,0.00554,0.00806,60.9,56.1,9,553,.,.,4.22,0.00,0.00
15min,AgWx,beryljct,423,12OCT2020:15:15:00,79.0,13.49,75.8,76.0,75.8,76.3,75.4,12,14,10,0.386,18.9,22.7,15.5,8.72,11.7,279,14,19.0,0.00517,0.00751,61.2,56.2,9,518,.,.,4.22,0.00,0.00
15min,AgWx,beryljct,423,12OCT2020:15:30:00,78.9,13.48,75.0,75.4,75.9,76.3,75.4,12,15,10,0.365,20.1,24.6,16.2,15.19,11.4,278,14,15.5,0.00484,0.00710,61.6,56.3,9,477,.,.,4.22,0.00,0.00
15min,AgWx,beryljct,423,12OCT2020:15:45:00,78.7,13.49,75.5,75.4,75.3,75.6,75.1,13,17,11,0.392,20.9,27.8,17.1,7.3,10.5,273,13,15.5,0.00441,0.00652,61.8,56.5,9,433,.,.,4.22,0.00,0.00
15min,AgWx,beryljct,423,12OCT2020:16:00:00,78.5,13.46,75.2,75.3,75.2,75.6,74.8,14,16,12,0.408,21.9,25.7,18.7,7.322,10.0,277,16,17.3,0.00400,0.00598,62.0,56.6,9,386,.,.,4.22,0.00,0.00
15min,AgWx,beryljct,423,12OCT2020:16:15:00,78.2,13.49,74.3,74.6,75.0,75.4,74.5,13,14,11,0.396,20.7,23.6,18.0,11.03,11.2,279,11,15.9,0.00392,0.00607,62.2,56.8,9,339,.,.,4.22,0.00,0.00
15min,AgWx,beryljct,423,12OCT2020:16:30:00,77.7,13.56,74.6,74.6,74.8,75.1,74.5,12,13,11,0.346,18.5,21.2,15.8,10.87,12.3,281,9.4,16.8,0.00385,0.00617,62.3,57.0,9,292,.,.,4.22,0.00,0.00
15min,AgWx,beryljct,423,12OCT2020:16:45:00,77.2,13.52,74.7,74.5,74.5,74.9,73.9,12,13,10,0.345,17.9,20.8,15.7,13.35,12.1,285,9.5,15.7,0.00352,0.00578,62.4,57.1,9,243,.,.,4.22,0.00,0.00
15min,AgWx,beryljct,423,12OCT2020:17:00:00,76.5,13.53,73.1,73.0,74.0,74.6,73.0,12,13,11,0.367,18.0,20.1,15.9,8.55,11.1,287,11,14.8,0.00178,0.00225,62.5,57.3,9,199,.,.,4.22,0.00,0.00
15min,AgWx,beryljct,423,12OCT2020:17:15:00,75.5,13.59,71.4,72.3,72.9,73.8,72.0,13,14,11,0.346,18.3,20.4,15.2,8.2,10.0,273,7.5,13.3,0.00156,0.00200,62.4,57.4,9,154,.,.,4.23,0.00,0.00
15min,AgWx,beryljct,423,12OCT2020:17:30:00,74.1,13.62,70.4,70.7,71.6,72.3,70.7,13,15,12,0.363,18.7,20.8,16.5,8.31,9.5,271,5.8,12.9,0.00138,0.00179,62.4,57.6,9,111,.,.,4.23,0.00,0.00
15min,AgWx,beryljct,423,12OCT2020:17:45:00,72.4,13.17,69.1,68.9,69.6,70.7,68.7,14,16,14,0.331,19.0,20.8,17.4,10,8.7,269,7.8,12.0,0.00113,0.00149,62.3,57.7,9,56,.,.,4.23,0.00,0.00
15min,AgWx,beryljct,423,12OCT2020:18:00:00,69.9,13.1,68.6,67.5,67.5,69.1,66.6,15,16,13,0.299,17.9,19.7,15.0,6.423,7.3,253,6.2,10.2,0.00085,0.00116,62.2,57.9,9,9,.,.,4.23,0.00,0.00
15min,AgWx,beryljct,423,12OCT2020:18:15:00,67.3,13.06,65.3,64.3,66.2,68.1,64.2,15,19,13,0.380,17.1,20.6,14.6,8.13,6.7,240,5.6,8.4,0.00075,0.00104,62.0,58.0,9,3,.,.,4.23,0.01,0.00
15min,AgWx,beryljct,423,12OCT2020:18:30:00,65.5,13.02,66.3,66.6,65.5,67.0,64.0,21,23,18,0.479,24.6,26.4,20.0,8.64,8.0,232,7.9,11.2,0.00079,0.00106,61.8,58.1,9,0,.,.,4.23,0.00,0.00
15min,AgWx,beryljct,423,12OCT2020:18:45:00,64.8,13.01,65.9,66.2,66.3,66.9,65.7,22,23,21,0.489,26.3,27.2,25.8,7.41,8.5,222,6.0,11.3,0.00084,0.00111,61.6,58.3,9,0,.,.,4.23,0.00,0.00
15min,AgWx,beryljct,423,12OCT2020:19:00:00,64.2,13.01,65.2,64.6,65.1,66.1,64.3,23,24,22,0.483,26.5,26.9,26.1,8.53,7.9,221,5.4,9.5,0.00075,0.00101,61.3,58.4,9,0,.,.,4.23,0.00,0.00
15min,AgWx,beryljct,423,12OCT2020:19:15:00,63.7,13.01,64.7,64.6,64.7,65.2,64.4,23,24,22,0.488,26.4,26.9,25.7,7.322,8.2,216,6.0,10.2,0.00077,0.00102,61.0,58.5,10,0,.,.,4.23,0.00,0.00
15min,AgWx,beryljct,423,12OCT2020:19:30:00,63.1,12.99,63.7,64.0,64.1,64.8,63.4,24,25,23,0.489,26.6,27.2,26.0,7.278,7.4,210,5.5,9.8,0.00068,0.00092,60.8,58.6,9,0,.,.,4.23,0.00,0.00
15min,AgWx,beryljct,423,12OCT2020:19:45:00,62.4,12.98,57.8,58.0,61.1,64.4,58.0,25,28,23,0.447,25.2,26.7,23.5,9.65,7.7,180,19,10.5,0.00066,0.00088,60.5,58.7,9,0,.,.,4.23,0.00,0.00
15min,AgWx,beryljct,423,12OCT2020:20:00:00,60.8,12.96,59.2,59.7,58.3,59.8,57.0,27,29,26,0.451,24.9,25.9,23.9,7.3,8.1,163,6.9,10.2,0.00062,0.00081,60.3,58.7,9,0,.,.,4.24,0.01,0.00
15min,AgWx,beryljct,423,12OCT2020:20:15:00,59.7,12.97,61.1,60.4,59.2,60.4,58.4,27,28,25,0.473,25.0,26.2,23.7,7.717,7.0,183,13,8.4,0.00056,0.00075,60.1,58.8,9,0,.,.,4.24,0.00,0.00
15min,AgWx,beryljct,423,12OCT2020:20:30:00,59.2,12.95,55.3,55.5,59.5,60.8,54.8,27,34,25,0.470,25.5,27.6,24.7,7.037,7.7,189,19,10.1,0.00062,0.00082,59.8,58.8,9,0,.,.,4.24,0.00,0.00
15min,AgWx,beryljct,423,12OCT2020:20:45:00,57.9,12.95,56.2,55.6,55.2,56.2,54.5,32,34,29,0.450,25.6,26.7,24.5,7.256,7.7,163,8.2,10.2,0.00050,0.00066,59.6,58.9,9,0,.,.,4.24,0.00,0.00
15min,AgWx,beryljct,423,12OCT2020:21:00:00,56.6,12.95,56.3,55.3,54.7,55.7,53.5,31,33,29,0.465,24.6,25.4,23.6,5.546,6.8,190,11,8.5,0.00045,0.00061,59.3,58.9,9,0,.,.,4.25,0.00,0.00
15min,AgWx,beryljct,423,12OCT2020:21:15:00,56.0,12.94,60.7,59.0,57.2,59.0,55.4,29,31,27,0.464,25.6,26.0,25.2,5.919,5.6,208,3.7,6.1,0.00040,0.00057,59.1,59.0,9,0,.,.,4.24,0.00,0.00
15min,AgWx,beryljct,423,12OCT2020:21:30:00,56.0,12.93,58.2,59.1,59.3,60.0,58.4,27,29,26,0.468,25.5,26.4,24.5,5.108,5.6,208,6.3,7.3,0.00044,0.00063,58.9,59.0,9,0,.,.,4.25,0.00,0.00
15min,AgWx,beryljct,423,12OCT2020:21:45:00,55.9,12.93,57.4,57.0,57.8,60.7,56.1,29,33,25,0.488,25.8,27.5,24.3,5.174,5.1,235,14,6.6,0.00036,0.00052,58.6,59.0,10,0,.,.,4.24,0.00,0.00
15min,AgWx,beryljct,423,12OCT2020:22:00:00,54.9,12.93,45.8,48.6,51.6,58.3,45.8,42,55,29,0.528,28.3,30.9,26.4,4.143,4.2,110,69,8.8,0.00019,0.00028,58.4,59.0,9,0,.,.,4.24,0.00,0.00
15min,AgWx,beryljct,423,12OCT2020:22:15:00,52.7,12.92,46.8,46.6,46.1,48.4,43.5,51,62,46,0.533,29.1,31.5,27.6,6.752,5.2,110,22,7.6,0.00015,0.00022,58.1,59.0,9,0,.,.,4.25,0.01,0.00
15min,AgWx,beryljct,423,12OCT2020:22:30:00,51.2,12.91,47.9,47.7,47.8,49.1,46.6,46,50,42,0.503,27.9,28.9,26.9,3.113,4.4,165,15,8.4,0.00015,0.00022,57.9,59.0,9,0,.,.,4.25,0.00,0.00
15min,AgWx,beryljct,423,12OCT2020:22:45:00,50.2,12.91,47.9,46.9,48.7,50.4,46.8,40,45,36,0.489,25.7,27.2,24.2,2.302,4.9,217,11,6.8,0.00021,0.00031,57.7,59.0,9,0,.,.,4.25,0.00,0.00
15min,AgWx,beryljct,423,12OCT2020:23:00:00,49.2,12.89,45.7,44.9,45.9,50.9,43.3,50,59,35,0.515,27.9,30.3,24.3,7.388,5.7,99,40,10.0,0.00019,0.00026,57.4,58.9,9,0,.,.,4.25,0.00,0.00
15min,AgWx,beryljct,423,12OCT2020:23:15:00,48.2,12.88,45.6,44.2,46.8,49.9,43.2,45,52,40,0.491,26.5,28.5,25.4,1.315,2.9,253,50,8.9,0.00004,0.00009,57.1,58.9,9,0,.,.,4.25,0.00,0.00
15min,AgWx,beryljct,423,12OCT2020:23:30:00,47.3,12.87,42.9,43.3,46.7,48.7,42.9,43,52,39,0.497,25.5,27.0,24.7,2.324,0.8,217,51,2.5,-0.00021,-0.00030,56.9,58.9,9,0,.,.,4.26,0.00,0.00
15min,AgWx,bigpiney,439,12OCT2020:00:00:00,29.4,12.54,29.0,28.8,26.9,28.9,25.1,72,75,67,0.361,19.0,19.6,17.3,0.548,2.5,309,67,6.4,0.00006,0.00008,43.4,45.4,44,0,0,0.0,0.13,0.00,0.00
15min,AgWx,bigpiney,439,12OCT2020:00:15:00,28.8,12.53,29.7,28.4,27.8,29.5,26.1,68,72,64,0.356,18.6,19.7,17.3,1.25,1.0,30,81,3.0,0.00002,0.00004,43.4,45.3,44,0,0,0.0,0.13,0.00,0.00
15min,AgWx,bigpiney,439,12OCT2020:00:30:00,28.3,12.52,24.3,25.6,27.3,29.3,25.3,69,73,65,0.333,18.3,19.5,16.8,3.354,2.7,139,17,6.4,0.00007,0.00010,43.4,45.3,44,0,0,0.0,0.13,0.00,0.00
15min,AgWx,bigpiney,439,12OCT2020:00:45:00,27.9,12.51,27.1,26.4,25.0,26.4,24.2,74,75,71,0.354,17.8,19.0,16.8,2.389,2.6,140,13,4.6,0.00005,0.00007,43.3,45.3,44,0,0,0.0,0.13,0.00,0.00
15min,AgWx,bigpiney,439,12OCT2020:01:00:00,27.5,12.5,27.8,26.3,25.9,26.5,25.0,73,75,71,0.356,18.3,19.1,17.7,4.319,4.1,130,15,7.7,0.00008,0.00010,43.2,45.3,44,0,0,0.0,0.13,0.00,0.00
15min,AgWx,bigpiney,439,12OCT2020:01:15:00,27.4,12.49,28.5,29.6,28.4,30.0,26.4,68,73,65,0.362,19.2,20.0,17.9,5.064,3.6,145,35,8.2,0.00009,0.00012,43.2,45.3,44,0,0,0.0,0.13,0.00,0.00
15min,AgWx,bigpiney,439,12OCT2020:01:30:00,27.6,12.49,27.4,27.5,28.2,29.9,26.6,68,71,65,0.355,18.8,20.0,17.9,2.455,2.4,148,73,6.2,0.00007,0.00010,43.1,45.3,44,0,0,0.0,0.13,0.00,0.00
15min,AgWx,bigpiney,439,12OCT2020:01:45:00,27.6,12.47,24.4,24.5,27.3,29.5,24.4,69,76,66,0.339,18.6,20.0,16.7,1.14,1.2,356,34,4.6,0.00003,0.00005,43.1,45.3,44,0,0,0.0,0.13,0.00,0.00
15min,AgWx,bigpiney,439,12OCT2020:02:00:00,27.5,12.46,26.3,26.2,25.7,27.0,24.0,74,78,70,0.354,18.7,19.9,17.3,2.455,3.3,14,47,5.3,0.00006,0.00008,43.1,45.2,44,0,0,0.0,0.13,0.00,0.00
15min,AgWx,bigpiney,439,12OCT2020:02:15:00,27.7,12.46,25.2,25.3,25.3,26.2,24.9,77,79,74,0.359,19.2,19.7,18.9,5.13,3.6,352,42,6.3,0.00006,0.00007,43.0,45.2,44,0,0,0.0,0.13,0.00,0.00
15min,AgWx,bigpiney,439,12OCT2020:02:30:00,28.0,12.45,25.9,25.9,25.4,26.2,24.8,78,80,77,0.369,19.6,20.3,19.2,1.556,2.9,6.4,62,6.1,0.00004,0.00006,42.9,45.2,44,0,0,0.0,0.13,0.00,0.00
15min,AgWx,bigpiney,439,12OCT2020:02:45:00,28.4,12.43,26.6,26.4,26.9,27.6,25.7,76,79,74,0.380,20.4,20.8,19.8,4.538,2.0,39,50,5.6,0.00004,0.00005,42.9,45.2,44,0,0,0.0,0.13,0.00,0.00
15min,AgWx,bigpiney,439,12OCT2020:03:00:00,28.9,12.42,27.5,27.2,26.8,27.7,26.0,79,80,77,0.397,21.2,21.7,20.5,1.754,3.0,57,33,6.2,0.00005,0.00007,42.8,45.2,44,0,0,0.0,0.13,0.00,0.00
15min,AgWx,bigpiney,439,12OCT2020:03:15:00,29.4,12.42,28.2,27.7,27.5,27.9,27.2,78,80,76,0.399,21.4,21.8,21.1,2.587,2.8,42,58,6.8,0.00005,0.00007,42.8,45.1,44,0,0,0.0,0.13,0.00,0.00
15min,AgWx,bigpiney,439,12OCT2020:03:30:00,29.9,12.41,29.8,29.3,29.2,30.9,27.7,75,78,72,0.418,22.3,23.3,21.7,3.025,2.8,203,71,5.9,0.00006,0.00008,42.7,45.1,44,0,0,0.0,0.13,0.00,0.00
15min,AgWx,bigpiney,439,12OCT2020:03:45:00,30.6,12.4,28.8,28.7,30.4,33.4,28.7,73,76,66,0.407,22.8,24.1,22.0,1.293,2.4,264,84,5.8,0.00006,0.00008,42.7,45.1,44,0,0,0.0,0.13,0.00,0.00
15min,AgWx,bigpiney,439,12OCT2020:04:00:00,31.1,12.38,30.8,30.4,29.4,31.4,28.6,77,79,73,0.424,23.0,24.5,22.2,4.669,3.9,258,77,8.3,0.00007,0.00009,42.6,45.1,44,0,0,0.0,0.13,0.00,0.00
15min,AgWx,bigpiney,439,12OCT2020:04:15:00,31.7,12.36,34.7,32.7,32.2,34.9,30.1,70,75,64,0.439,23.5,24.7,22.7,2.696,5.1,324,56,11.3,0.00012,0.00016,42.6,45.1,44,0,0,0.0,0.13,0.00,0.00
15min,AgWx,bigpiney,439,12OCT2020:04:30:00,32.4,12.35,37.6,35.0,34.7,36.8,33.0,64,69,60,0.452,23.9,24.7,23.3,6.357,4.0,199,30,8.7,0.00013,0.00018,42.6,45.0,44,0,0,0.0,0.13,0.00,0.00
15min,AgWx,bigpiney,439,12OCT2020:04:45:00,33.5,12.35,37.1,37.3,36.9,37.4,35.2,60,65,58,0.443,24.3,24.7,24.0,2.346,5.0,187,15,8.6,0.00019,0.00024,42.5,45.1,44,0,0,0.0,0.13,0.00,0.00
15min,AgWx,bigpiney,439,12OCT2020:05:00:00,34.5,12.32,36.4,36.6,36.8,37.3,36.3,60,62,59,0.449,24.3,24.7,23.9,6.599,4.7,167,13,7.8,0.00018,0.00023,42.5,45.0,44,0,0,0.0,0.13,0.00,0.00
15min,AgWx,bigpiney,439,12OCT2020:05:15:00,35.1,12.31,36.2,35.9,36.5,38.0,35.4,61,63,57,0.437,24.2,24.5,23.7,3.661,4.9,157,35,12.0,0.00018,0.00024,42.4,45.1,44,0,0,0.0,0.13,0.00,0.00
15min,AgWx,bigpiney,439,12OCT2020:05:30:00,35.5,12.29,33.9,34.0,35.9,36.5,34.0,61,66,60,0.435,23.9,24.1,23.6,4.516,3.5,179,37,7.8,0.00014,0.00019,42.4,45.0,44,0,0,0.0,0.13,0.00,0.00
15min,AgWx,bigpiney,439,12OCT2020:05:45:00,35.6,12.29,35.1,34.1,34.4,35.1,33.9,65,66,63,0.438,23.9,24.1,23.6,3.332,4.4,202,12,6.5,0.00014,0.00018,42.4,45.0,44,0,0,0.0,0.13,0.00,0.00
15min,AgWx,bigpiney,439,12OCT2020:06:00:00,35.6,12.29,33.9,34.7,35.3,36.7,33.9,63,66,59,0.439,23.9,24.3,23.6,2.455,4.7,179,30,9.7,0.00016,0.00021,42.3,45.0,44,0,0,0.0,0.13,0.00,0.00
15min,AgWx,bigpiney,439,12OCT2020:06:15:00,35.7,12.28,34.3,34.0,35.5,37.6,34.0,62,66,58,0.434,23.9,24.7,23.5,3.88,4.7,191,32,10.8,0.00016,0.00021,42.3,44.9,44,0,0,0.0,0.13,0.00,0.00
15min,AgWx,bigpiney,439,12OCT2020:06:30:00,35.6,12.28,32.6,33.8,34.7,35.7,33.8,64,66,62,0.422,23.8,24.2,23.0,1.754,4.1,201,17,8.1,0.00014,0.00019,42.3,44.9,44,2,0,0.0,0.13,0.00,0.00
15min,AgWx,bigpiney,439,12OCT2020:06:45:00,35.2,12.34,34.2,35.2,34.5,35.8,33.3,64,67,61,0.425,23.5,24.1,23.0,5.196,5.0,201,16,8.7,0.00018,0.00023,42.2,44.9,44,15,0,0.0,0.13,0.00,0.00
15min,AgWx,bigpiney,439,12OCT2020:07:00:00,34.9,12.61,34.4,34.4,34.5,35.4,34.0,63,65,61,0.431,23.4,23.9,23.0,5.744,5.7,187,8.1,7.9,0.00011,0.00033,42.2,44.9,44,52,0,0.0,0.13,0.00,0.00
15min,AgWx,bigpiney,439,12OCT2020:07:15:00,35.1,13.31,39.9,38.8,36.0,38.8,34.4,62,64,56,0.451,24.3,25.0,23.5,11.16,6.3,199,12,16.2,0.00034,0.00061,42.2,44.8,44,102,0,0.0,0.13,0.00,0.00
15min,AgWx,bigpiney,439,12OCT2020:07:30:00,36.5,13.85,40.7,39.8,39.3,40.1,38.6,56,58,53,0.465,24.8,25.4,24.3,5.744,6.5,202,16,11.0,0.00069,0.00106,42.2,44.9,44,164,0,0.0,0.13,0.00,0.00
15min,AgWx,bigpiney,439,12OCT2020:07:45:00,38.8,13.3,40.8,40.7,41.1,41.8,39.8,53,56,51,0.456,25.3,26.1,24.3,3.551,7.5,200,27,12.5,0.00089,0.00134,42.2,44.9,44,184,0,0.0,0.13,0.00,0.00
15min,AgWx,bigpiney,439,12OCT2020:08:00:00,40.7,14.69,42.9,42.9,42.1,43.0,40.7,50,54,47,0.440,25.0,25.9,24.0,4.889,6.4,195,29,12.9,0.00106,0.00150,42.1,44.8,44,231,0,0.0,0.13,0.00,0.00
15min,AgWx,bigpiney,439,12OCT2020:08:15:00,42.8,14.54,43.6,43.6,43.5,44.1,42.8,47,49,46,0.455,24.9,26.0,23.9,13.24,8.3,232,21,15.1,0.00128,0.00186,42.1,44.8,44,247,0,0.0,0.13,0.00,0.00
15min,AgWx,bigpiney,439,12OCT2020:08:30:00,44.5,13.44,44.2,44.4,44.0,44.7,43.6,46,47,45,0.451,24.5,25.1,23.9,12.32,11.9,233,19,21.0,0.00158,0.00234,42.1,44.8,44,257,0,0.0,0.13,0.00,0.00
15min,AgWx,bigpiney,439,12OCT2020:08:45:00,45.3,13.14,43.5,43.2,43.7,44.5,43.2,46,48,45,0.447,24.5,24.9,24.0,14.93,12.2,242,13,17.9,0.00133,0.00207,42.1,44.8,44,105,0,0.0,0.13,0.00,0.00